Hourly Data Report for April 09, 2004

TORONTO CITY
ONTARIO

43°40'00.000" N
79°24'00.000" W
112.50 m
6158355
71508
XTO

Download Data

Hourly Data (April 2004)
Hourly Data Report for April 9, 2004
TIME
LST
Temp Definition
°C
Dew Point Definition
°C
Rel Hum Definition
%
Precip. Amount Definition
mm

Wind Dir Definition
10's deg

Wind Spd Definition
km/h
Visibility Definition
km
Stn Press Definition
kPa
Hmdx Definition


Wind Chill Definition


Weather Definition


00:00 4.5 -2.9 59   LegendMM LegendMM LegendMM 99.46     LegendNANA
01:00 3.9 -2.6 63   LegendMM LegendMM LegendMM 99.51     LegendNANA
02:00 3.7 -2.4 64   LegendMM LegendMM LegendMM 99.52     LegendNANA
03:00 3.1 -2.3 68   LegendMM LegendMM LegendMM 99.57     LegendNANA
04:00 2.8 -2.4 69   LegendMM LegendMM LegendMM 99.62     LegendNANA
05:00 2.8 -2.4 69   LegendMM LegendMM LegendMM 99.68     LegendNANA
06:00 2.8 -2.2 70   LegendMM LegendMM LegendMM 99.77     LegendNANA
07:00 3.2 -1.8 70   LegendMM LegendMM LegendMM 99.85     LegendNANA
08:00 4.3 -1.6 65   LegendMM LegendMM LegendMM 99.87     LegendNANA
09:00 5.9 -0.9 62   LegendMM LegendMM LegendMM 99.92     LegendNANA
10:00 6.9 -4.3 45   LegendMM LegendMM LegendMM 99.96     LegendNANA
11:00 8.8 -7.5 31   LegendMM LegendMM LegendMM 100.00     LegendNANA
12:00 8.3 -6.7 34   LegendMM LegendMM LegendMM 99.97     LegendNANA
13:00 10.5 -5.2 33   LegendMM LegendMM LegendMM 99.95     LegendNANA
14:00 10.7 -5.8 31   LegendMM LegendMM LegendMM 99.96     LegendNANA
15:00 11.0 -5.6 31   LegendMM LegendMM LegendMM 99.92     LegendNANA
16:00 11.4 -3.6 35   LegendMM LegendMM LegendMM 99.92     LegendNANA
17:00 10.3 -3.8 37   LegendMM LegendMM LegendMM 99.97     LegendNANA
18:00 9.9 -3.8 38   LegendMM LegendMM LegendMM 100.04     LegendNANA
19:00 8.5 -4.1 41   LegendMM LegendMM LegendMM 100.10     LegendNANA
20:00 7.5 -5.0 41   LegendMM LegendMM LegendMM 100.18     LegendNANA
21:00 6.8 -3.8 47   LegendMM LegendMM LegendMM 100.18     LegendNANA
22:00 6.1 -3.4 51   LegendMM LegendMM LegendMM 100.17     LegendNANA
23:00 5.8 -3.9 50   LegendMM LegendMM LegendMM 100.19     LegendNANA

Notes on Data Quality.

Legend

  • E = Estimated
  • M = Missing
  • NA = Not Available*
  • [empty] = Indicates an unobserved value
Date modified: